Location: Howard City Library
(37.4684°N, 96.2639°W)
Time: 15:24:19
(UTC+00:00)

STARLINK-1043 - Pass Details

Date: 18 February 2020
Orbit: 548 x 551 km, 53.0° (Epoch: 28 March)

Event Time Altitude Azimuth Distance (km) Brightness Sun altitude
Exits shadow 11:22:16 61° 192° (SSW) 626 3.7 -22.3°
Drops below altitude 10° 11:25:58 10° 144° (SE) 1,813 6.7 -21.5°
Sets 11:28:12 0° 141° (SE) 2,702 7.7 -21.1°
